Regional Weather Roundup
Issued by NWS

Home | Current Version | Previous Version | Graphics & Text | Print | Product List | Glossary On
Versions: 1 2 3 4 5 6 7 8 9 10 11 12 13 14 15 16 17 18 19 20 21 22 23 24 25 26 27 28 29 30 31 32 33 34 35 36 37 38 39 40 41 42 43 44 45 46 47 48 49 50
000
ASUS43 KDTX 220301
RWRMI
MICHIGAN HOURLY REGIONAL WEATHER ROUNDUP
NATIONAL WEATHER SERVICE DETROIT/PONTIAC MI
1100 PM EDT THU AUG 21 2014

NOTE: "FAIR" INDICATES FEW OR NO CLOUDS BELOW 12,000 FEET WITH NO
SIGNIFICANT WEATHER AND/OR OBSTRUCTION TO VISIBILITY.

MIZ047>049-052>055-059>063-066>070-074>076-081>083-220400-
SOUTHEAST LOWER MICHIGAN

CITY           SKY/WX    TMP DP  RH WIND       PRES   REMARKS
ADRIAN         MOCLDY    73  69  87 CALM      29.99R
ALMA           MOCLDY    69  67  94 CALM      29.99R
ANN ARBOR      FOG       70  68  93 CALM      29.98R VSB 1
BAD AXE          N/A     59  59 100 CALM      30.01S FOG
CARO           PTCLDY    65  64  96 CALM      29.99S
DETROIT CITY   HVY RAIN  75  70  84 CALM      29.99R
DETROIT        CLOUDY    74  71  91 CALM      29.98S
FLINT          CLOUDY    75  66  73 E6        29.98S
GROSSE ILE     CLOUDY    75  72  88 CALM      29.97R
HILLSDALE      PTCLDY    69  69 100 CALM      30.00S
HOWELL         MOCLDY    70  69  97 CALM      29.98S

CITY           SKY/WX    TMP DP  RH WIND       PRES   REMARKS
JACKSON        PTCLDY    71  69  93 CALM      29.99R FOG
LAMBERTVILLE   CLOUDY    75  70  83 SW5       30.00R
LANSING        MOCLDY    72  69  90 CALM      29.98S
LAPEER         CLOUDY    66  64  92 E3        30.00S
MASON          FOG       70  69  97 CALM      29.99R VSB 1
MONROE         LGT RAIN  73  70  88 W3        29.97R
MT. CLEMENS    MOCLDY    68  64  86 NE5       29.99R
PONTIAC        CLOUDY    72  67  84 NE5       29.98S
PORT HOPE        N/A     62  60  93 SW3       29.99S
PORT HURON     CLOUDY    66  64  94 NE3       30.00S
TRI CITIES     CLOUDY    70  64  81 E6        29.99S
TROY           RAIN      73  69  89 N3        30.02R
SAGINAW HB     PTCLDY    66  66 100 E6        29.98F
$$
MIZ043>046-050>051-056>058-064>065-071>073-077>080-220400-
SOUTHWEST LOWER MICHIGAN

CITY           SKY/WX    TMP DP  RH WIND       PRES   REMARKS
BATTLE CREEK   MOCLDY    74  70  87 CALM      29.99R
BENTON HARBOR  PTCLDY    71  70  96 CALM      29.96R FOG
BIG RAPIDS     CLOUDY    67  67  99 NW3       29.98S
COLDWATER      PTCLDY    70  69  96 CALM      29.98S FOG
FREMONT        FOG       68  68  99 CALM      29.96F VSB 1/4
HOLLAND        CLOUDY    72  70  93 E3        29.97R FOG
GRAND RAPIDS   CLOUDY    72  71  97 E3        29.98R FOG
IONIA          FAIR      70  69  96 CALM      29.98R
KALAMAZOO      PTCLDY    73  70  90 CALM      29.98R
LUDINGTON      FOG       68  67  98 CALM      29.97S VSB 1/2
MARSHALL       PTCLDY    69  68  99 CALM      29.98R FOG
MOUNT PLEASANT CLOUDY    69  67  93 CALM      29.98S
MUSKEGON       CLOUDY    72  69  90 CALM      29.96S FOG
SOUTH HAVEN    PTCLDY    72  72 100 CALM      29.96S
$$
MIZ016>042-220400-
NORTHERN LOWER MICHIGAN

CITY           SKY/WX    TMP DP  RH WIND       PRES   REMARKS
ALPENA         PTCLDY    61  60  97 S3        30.00R
BEAVER ISLAND  MOCLDY    62  62  98 CALM      30.00R
BELLAIRE       CLOUDY    65  63  93 CALM      29.98S
CADILLAC       CLOUDY    69  66  91 CALM      30.00S
CHARLEVOIX     PTCLDY    65  64  96 CALM      30.02S
FRANKFORT      MOCLDY    69  65  87 CALM      29.96F
GAYLORD        CLEAR     64  62  93 CALM      30.01S
GRAYLING       CLOUDY    69  67  94 CALM      30.01S
HARBOR SPRINGS CLEAR     65  62  90 NE5       29.99S
HOUGHTON LAKE  CLOUDY    66  65  96 E6        30.01R
MANISTEE       CLOUDY    70  66  88 CALM      29.98S
OSCODA         PTCLDY    63  62  96 CALM      29.99F
PELLSTON       CLEAR     60  60 100 CALM      30.00R
ROGERS CITY    MOCLDY    61  61 100 CALM      30.01R
TRAVERSE CITY  CLOUDY    69  64  84 CALM      29.97S
$$
MIZ007>008-015-220400-
EASTERN UPPER MICHIGAN

CITY           SKY/WX    TMP DP  RH WIND       PRES   REMARKS
KINROSS        PTCLDY    64  63  94 CALM      30.00R
MACKINAC ISLAN PTCLDY    62  62  99 S6        30.00R
NEWBERRY       PTCLDY    59  58  96 CALM      30.00R
S. S. MARIE    PTCLDY    62  60  93 CALM      29.98R
$$
MIZ004>006-011>014-085-220400-
CENTRAL UPPER MICHIGAN

CITY           SKY/WX    TMP DP  RH WIND       PRES   REMARKS
MANISTIQUE     MOCLDY    58  57  99 CALM      29.98F
ESCANABA       CLOUDY    64  61  88 CALM      29.97F
MENOMINEE      CLOUDY    66  61  82 E5        29.96S
SAWYER-GWINN   CLOUDY    66  61  84 CALM      29.99S
$$
MIZ001>003-009>011-084-220400-
WESTERN UPPER MICHIGAN

CITY           SKY/WX    TMP DP  RH WIND       PRES   REMARKS
IRON MOUNTAIN  CLOUDY    65  62  90 SE5       29.97S
HOUGHTON       CLOUDY    57  56  96 E7        29.97S FOG
COPPER HARBOR    N/A     57  55  93 CALM      29.97S
IRONWOOD       CLOUDY    70  66  88 E6        29.90S
$$

ABBREVIATIONS USED IN REMARKS
   TC - TEMPERATURE IN CELSIUS
  WCI - WIND CHILL INDEX
   HX - HEAT INDEX
  VSB - VISIBILITY



USA.gov is the U.S. government's official web portal to all federal, state and local government web resources and services.